This demonstration page uses our WeatherBlox Daily Observations layout. Learn more.

Left ArrowRight Arrow

53.62937, 11.41316

Hourly Observations for May 27, 2022

Temp ( °F °C ) Dew Point ( °F °C ) Humidity (%) Winds ( mph kmh ) Pressure ( in mb ) Visibility ( mi km ) Precip ( " mm )
12:20 am 00:20 Mostly Cloudy 54 12 54 12 100 100 VRB 5 7 29.91 1013 6 9 N/A
12:50 am 00:50 Mostly Cloudy 55 13 54 12 94 94 VRB 7 11 29.91 1013 30 48 N/A
1:20 am 01:20 Cloudy 55 13 54 12 94 94 WSW 12 19 29.88 1012 30 48 N/A
1:50 am 01:50 Mostly Cloudy 55 13 54 12 94 94 W 10 17 29.88 1012 30 48 N/A
2:20 am 02:20 Mostly Cloudy 55 13 54 12 94 94 W 10 17 29.88 1012 30 48 N/A
2:50 am 02:50 Mostly Cloudy 55 13 54 12 94 94 W 7 11 29.88 1012 30 48 N/A
3:20 am 03:20 Mostly Cloudy 55 13 52 11 88 88 W 10 17 29.88 1012 30 48 N/A
3:50 am 03:50 Mostly Cloudy 55 13 52 11 88 88 W 12 19 29.88 1012 30 48 N/A
4:20 am 04:20 Mostly Cloudy 55 13 50 10 82 82 W 10 17 29.88 1012 30 48 N/A
4:50 am 04:50 Mostly Cloudy 54 12 50 10 88 88 WSW 7 11 29.89 1012 30 48 N/A
5:20 am 05:20 Mostly Cloudy 54 12 48 9 82 82 W 9 15 29.91 1013 30 48 N/A
5:50 am 05:50 Mostly Sunny 52 11 46 8 82 82 W 9 15 29.91 1013 30 48 N/A
6:20 am 06:20 Mostly Sunny 54 12 46 8 77 77 W 9 15 29.91 1013 7 11 N/A
6:50 am 06:50 Mostly Sunny 54 12 46 8 77 77 W 9 15 29.91 1013 7 11 N/A
7:20 am 07:20 Mostly Sunny 54 12 45 7 72 72 W 12 19 29.91 1013 7 11 N/A
7:50 am 07:50 Mostly Sunny 54 12 45 7 72 72 W 12 19 29.91 1013 30 48 N/A
8:20 am 08:20 Partly Cloudy 55 13 45 7 67 67 W 15 24 29.91 1013 30 48 N/A
8:50 am 08:50 Partly Cloudy 55 13 45 7 67 67 W 14 22 29.91 1013 30 48 N/A
9:20 am 09:20 Partly Cloudy 57 14 41 5 55 55 W 15 24 29.91 1013 30 48 N/A
9:50 am 09:50 Mostly Cloudy 57 14 41 5 55 55 W 14 22 29.91 1013 30 48 N/A
10:20 am 10:20 Mostly Sunny 57 14 41 5 55 55 W 15 24 29.91 1013 30 48 N/A
10:50 am 10:50 Partly Cloudy with Showers Nearby 55 13 45 7 67 67 W 10 17 29.91 1013 30 48 N/A
11:20 am 11:20 Mostly Sunny 55 13 43 6 63 63 W 13 20 29.91 1013 7 11 N/A
11:50 am 11:50 Windy with Rain Showers Likely 50 10 45 7 82 82 WNW 22 35 29.94 1014 30 48 N/A
12:20 pm 12:20 Partly Cloudy with Showers Nearby 57 14 46 8 67 67 W 13 20 29.91 1013 30 48 N/A
12:50 pm 12:50 Mostly Sunny 59 15 45 7 59 59 W 17 28 29.91 1013 30 48 N/A
1:20 pm 13:20 Partly Cloudy 59 15 41 5 51 51 W 17 28 29.91 1013 30 48 N/A
1:50 pm 13:50 Mostly Cloudy with Showers Nearby 59 15 43 6 55 55 W 16 26 29.91 1013 30 48 N/A
2:20 pm 14:20 Mostly Sunny 59 15 43 6 55 55 W 23 37 29.91 1013 30 48 N/A
2:50 pm 14:50 Windy with Rain Showers Likely 57 14 41 5 55 55 W 21 33 29.91 1013 30 48 N/A
3:20 pm 15:20 Partly Cloudy 55 13 45 7 67 67 W 16 26 29.91 1013 30 48 N/A
3:50 pm 15:50 Mostly Cloudy with Light Rain 52 11 45 7 77 77 NW 16 26 29.91 1013 30 48 N/A
4:20 pm 16:20 Partly Cloudy with Light Rain 54 12 48 9 82 82 W 18 30 29.94 1014 30 48 N/A
4:50 pm 16:50 Partly Cloudy with Showers Nearby 55 13 45 7 67 67 W 15 24 29.91 1013 30 48 N/A
5:20 pm 17:20 Partly Cloudy with Showers Nearby 54 12 43 6 67 67 W 20 31 29.94 1014 30 48 N/A
5:50 pm 17:50 Mostly Cloudy with Light Showers 50 10 45 7 82 82 WNW 16 26 29.94 1014 6 9 N/A
6:20 pm 18:20 Partly Cloudy with Light Showers 50 10 45 7 82 82 W 17 28 29.91 1013 30 48 N/A
6:50 pm 18:50 Mostly Sunny 52 11 45 7 77 77 W 14 22 29.91 1013 30 48 N/A
7:20 pm 19:20 Partly Cloudy with Showers Nearby 54 12 45 7 72 72 W 12 19 29.91 1013 30 48 N/A
7:50 pm 19:50 Mostly Cloudy with Showers 46 8 45 7 93 93 WNW 15 24 29.94 1014 4 7 N/A
8:20 pm 20:20 Partly Cloudy with Showers Nearby 48 9 45 7 87 87 W 12 19 29.92 1013 30 48 N/A
8:50 pm 20:50 Mostly Sunny 48 9 45 7 87 87 W 12 19 29.92 1013 30 48 N/A
9:20 pm 21:20 Mostly Sunny 46 8 45 7 93 93 WSW 9 15 29.92 1013 30 48 N/A
9:50 pm 21:50 Mostly Clear 46 8 45 7 93 93 WSW 9 15 29.92 1013 7 11 N/A
10:20 pm 22:20 Mostly Clear 46 8 45 7 93 93 WSW 8 13 29.92 1013 30 48 N/A
10:50 pm 22:50 Mostly Clear 46 8 45 7 93 93 WSW 9 15 29.92 1013 30 48 N/A
11:20 pm 23:20 Partly Cloudy 46 8 45 7 93 93 W 7 11 29.92 1013 30 48 N/A
11:50 pm 23:50 Mostly Clear 46 8 45 7 93 93 W 8 13 29.92 1013 30 48 N/A

Powered by AerisWeather